Location: Allie Creek
(37.5926°N, 89.8526°W)
Time: 16:07:54
(UTC+00:00)

ATLAS 3B R/B - Pass Details

Date: 26 September 2023
Orbit: 954 x 1241 km, 63.8° (Epoch: 01 December)

Event Time Altitude Azimuth Distance (km) Brightness Sun altitude
Rises 01:34:03 0° 209° (SSW) 3,745 5.7 -20.9°
Reaches altitude 10° 01:36:34 10° 209° (SSW) 2,832 5.1 -21.3°
Maximum altitude 01:43:17 89° 120° (ESE) 1,098 2.6 -22.6°
Drops below altitude 10° 01:50:35 10° 32° (NNE) 3,058 4.9 -24.0°
Sets 01:53:24 0° 33° (NNE) 4,061 5.6 -24.5°
